GW4137 Weather Reports


Display with metric or nautical units.
time (UTC)temp
F
wind
direction
speed
MPH
gust
MPH
rain 1hr
in
rain 24hr
in
rain mn
in
humidity
%
barometer
mb
20260509090058 51 0 0.0 3.0 0.00 0.00 0.00 56 1012.8
20260509084600 52 0 0.0 2.0 0.00 0.00 0.00 56 1012.5
20260509083106 52 325 4.0 6.0 0.00 0.00 0.00 58 1012.7
20260509081552 53 325 1.0 4.0 0.00 0.00 0.00 53 1012.5
20260509080052 53 325 2.0 4.0 0.00 0.00 0.00 49 1012.5
20260509074608 55 325 2.0 5.0 0.00 0.00 0.00 48 1012.5
20260509073103 56 325 1.0 4.0 0.00 0.00 0.00 47 1012.4
20260509071556 56 0 0.0 1.0 0.00 0.00 0.00 45 1012.3
20260509070056 57 0 1.0 10.0 0.00 0.00 0.00 51 1012.2
20260509064550 57 330 2.0 10.0 0.00 0.00 0.00 50 1012.2
20260509063059 57 344 4.0 10.0 0.00 0.00 0.00 43 1012.2
20260509061549 57 345 5.0 10.0 0.00 0.00 0.00 42 1012.1
20260509060108 59 352 11.0 19.0 0.00 0.00 0.00 49 1011.9
20260509054552 59 316 12.0 22.0 0.00 0.00 0.00 47 1011.6
20260509053102 59 306 10.0 17.0 0.00 0.00 0.00 49 1011.5
20260509051558 60 285 19.0 30.0 0.00 0.00 0.00 48 1011.0
20260509050050 61 288 13.0 24.0 0.00 0.00 0.00 44 1010.8
20260509044552 61 283 10.0 21.0 0.00 0.00 0.00 42 1010.4
20260509043053 62 287 8.0 15.0 0.00 0.00 0.00 40 1010.5
20260509041550 63 288 2.0 13.0 0.00 0.00 0.00 35 1010.7
20260509040106 64 330 4.0 12.0 0.00 0.00 0.00 28 1010.7
20260509034550 63 320 1.0 6.0 0.00 0.00 0.00 28 1010.3
20260509033109 61 5 0.0 4.0 0.00 0.00 0.00 28 1009.9
20260509031550 62 5 0.0 0.0 0.00 0.00 0.00 27 1009.6
20260509030053 64 0 0.0 0.0 0.00 0.00 0.00 26 1009.3
20260509024603 64 0 0.0 1.0 0.00 0.00 0.00 25 1009.0
20260509023056 65 5 2.0 6.0 0.00 0.00 0.00 25 1008.6
20260509021553 67 5 4.0 10.0 0.00 0.00 0.00 23 1008.4
20260509020105 68 360 11.0 16.0 0.00 0.00 0.00 22 1008.1
20260509014554 69 352 12.0 18.0 0.00 0.00 0.00 21 1008.0
20260509013052 70 344 11.0 18.0 0.00 0.00 0.00 20 1008.1
20260509011601 70 352 12.0 18.0 0.00 0.00 0.00 20 1008.1
20260509010059 70 333 15.0 19.0 0.00 0.00 0.00 20 1008.0
20260509004553 71 340 15.0 21.0 0.00 0.00 0.00 19 1008.1
20260509003056 71 340 14.0 23.0 0.00 0.00 0.00 20 1008.1
20260509001550 72 330 16.0 24.0 0.00 0.00 0.00 18 1008.0
20260509000052 72 342 18.0 26.0 0.00 0.00 0.00 18 1008.0
20260508234604 72 304 13.0 27.0 0.00 0.00 0.00 18 1008.0
20260508233105 72 319 20.0 31.0 0.00 0.00 0.00 17 1008.0
20260508231550 73 327 22.0 31.0 0.00 0.00 0.00 18 1008.0
20260508230057 73 319 15.0 25.0 0.00 0.00 0.00 18 1007.8
20260508224556 74 331 18.0 29.0 0.00 0.00 0.00 18 1008.0
20260508223055 74 346 20.0 29.0 0.00 0.00 0.00 19 1008.0
20260508221600 73 323 17.0 30.0 0.00 0.00 0.00 20 1007.9
20260508220055 74 326 16.0 26.0 0.00 0.00 0.00 19 1007.9
20260508214549 74 315 16.0 27.0 0.00 0.00 0.00 18 1008.1
20260508213054 74 292 13.0 30.0 0.00 0.00 0.00 18 1008.1
20260508211550 75 344 11.0 29.0 0.00 0.00 0.00 20 1008.1
20260508210056 74 292 20.0 30.0 0.00 0.00 0.00 19 1008.1
20260508204554 74 302 14.0 30.0 0.00 0.00 0.00 18 1008.1
20260508203052 74 304 14.0 27.0 0.00 0.00 0.00 18 1008.4
20260508201554 74 296 14.0 30.0 0.00 0.00 0.00 20 1008.2
20260508200053 73 248 14.0 27.0 0.00 0.00 0.00 21 1008.3
20260508194605 74 298 15.0 24.0 0.00 0.00 0.00 22 1008.5
20260508193108 73 331 14.0 24.0 0.00 0.00 0.00 21 1008.7
20260508191601 73 288 10.0 21.0 0.00 0.00 0.00 22 1008.7
20260508190108 72 284 14.0 21.0 0.00 0.00 0.00 23 1009.1
20260508184552 72 282 13.0 26.0 0.00 0.00 0.00 23 1009.3
20260508183057 71 246 9.0 17.0 0.00 0.00 0.00 24 1009.7
20260508181602 71 259 9.0 16.0 0.00 0.00 0.00 27 1010.0
20260508180057 69 244 7.0 15.0 0.00 0.00 0.00 32 1010.0
20260508174555 68 262 7.0 14.0 0.00 0.00 0.00 34 1010.3
20260508173055 68 264 9.0 14.0 0.00 0.00 0.00 35 1010.3
20260508171556 67 282 9.0 13.0 0.00 0.00 0.00 36 1010.5
20260508170059 66 287 4.0 13.0 0.00 0.00 0.00 41 1010.7
20260508164604 64 241 7.0 14.0 0.00 0.00 0.00 47 1010.8
20260508163109 63 270 6.0 12.0 0.00 0.00 0.00 49 1011.0
20260508161558 62 250 7.0 13.0 0.00 0.00 0.00 50 1011.2
20260508160055 61 259 7.0 11.0 0.00 0.00 0.00 52 1011.4
20260508154558 59 264 6.0 12.0 0.00 0.00 0.00 55 1011.5
20260508153106 58 254 6.0 9.0 0.00 0.00 0.00 57 1011.8
20260508151556 57 250 3.0 7.0 0.00 0.00 0.00 61 1011.8
20260508150053 54 0 1.0 6.0 0.00 0.00 0.00 65 1011.8
20260508144551 53 209 2.0 6.0 0.00 0.00 0.00 68 1011.8
20260508143111 51 224 3.0 6.0 0.00 0.00 0.00 71 1012.0
20260508141558 50 225 4.0 8.0 0.00 0.00 0.00 72 1012.1
20260508140107 49 220 3.0 5.0 0.00 0.00 0.00 75 1012.1
20260508134553 47 220 2.0 8.0 0.00 0.00 0.00 78 1012.2
20260508133057 44 0 0.0 3.0 0.00 0.00 0.00 80 1012.1
20260508131552 43 0 0.0 3.0 0.00 0.00 0.00 83 1012.1
20260508130052 42 0 0.0 4.0 0.00 0.00 0.00 83 1012.1
20260508124552 41 238 3.0 7.0 0.00 0.00 0.00 84 1012.1
20260508123052 40 0 0.0 0.0 0.00 0.00 0.00 82 1011.9
20260508121550 39 0 0.0 0.0 0.00 0.00 0.00 84 1011.8
20260508120100 39 0 0.0 0.0 0.00 0.00 0.00 84 1011.9
20260508114601 38 0 0.0 0.0 0.00 0.00 0.00 81 1012.0
20260508113101 39 0 0.0 0.0 0.00 0.00 0.00 80 1012.1
20260508111553 40 0 0.0 0.0 0.00 0.00 0.00 80 1012.1
20260508110104 41 0 0.0 0.0 0.00 0.00 0.00 78 1012.1
20260508104552 42 0 0.0 0.0 0.00 0.00 0.00 77 1012.1
20260508103057 44 0 0.0 4.0 0.00 0.00 0.00 77 1012.0
20260508101556 45 345 4.0 12.0 0.00 0.00 0.00 75 1012.1
20260508100126 45 360 8.0 12.0 0.00 0.00 0.00 76 1012.1
20260508094557 46 329 4.0 10.0 0.00 0.00 0.00 73 1012.2
20260508093057 47 325 5.0 10.0 0.00 0.00 0.00 73 1012.0
20260508091608 47 316 4.0 9.0 0.00 0.00 0.00 72 1012.1